リニア-ニート彗星

355P/LINEAR-NEAT (2017)

English version
Home page
Updated on April 13, 2018

---------------------------------------------------------------------

・ プロフィール

符号 355P/2017 M2
検出日 2017年6月21日
検出光度 19.6等
検出者 Erwin Schwab (Egelsbach, Germany), Pablo Ruiz (European Space Agency's Optical Ground Station, Tenerife)

・ 写真集

・ 軌道要素

Epoch 2017 Oct. 14.0 TT = JDT 2458040.5
T 2017 Oct. 12.68009 TT                                 MPCW
q   1.7159749            (2000.0)            P               Q
n   0.15204336     Peri.  336.33728     +0.87879148     -0.45312364
a   3.4766242      Node    51.46122     +0.46267092     +0.73220256
e   0.5064250      Incl.   11.03232     +0.11688093     +0.50848636
P   6.48
From 747 observations 2004 July 16-2018 Mar. 9, mean residual 0".6.

・ 星図

・ 光度変化

        m1 = 10.0 + 5 logΔ + 25.0 log r(t - 25)

---------------------------------------------------------------------

軌道要素はM.P.E.C. 2018-F152に掲載されたものです。
星図はステラナビゲータ Ver.10 (アストロアーツ) で作成したものです。
光度グラフはComet for Windowsで作成したものです。

---------------------------------------------------------------------

Copyright(C) Seiichi Yoshida (comet@aerith.net). All rights reserved.